{"data":{"norad_id":66817,"epoch":"2026-09-20T05:42:37.955520Z","epoch_age_seconds":109111,"freshness":"FRESH","line1":"1 66817U 25278AC  26263.23793930  .00007098  00000+0  26720-3 0  9990","line2":"2 66817  43.0008  95.5789 0001299 276.1251  83.9452 15.27582565 44963","mean_motion":15.27582565,"eccentricity":0.0001299,"inclination_deg":43.0008,"raan_deg":95.5789,"arg_perigee_deg":276.1251,"mean_anomaly_deg":83.9452,"bstar":0.0002672,"rev_number":4496,"period_min":94.266590428125,"perigee_km":482.15014844147,"apogee_km":483.93268259382,"semimajor_km":6861.1784155176,"source":"CELESTRAK","updated_at":"2026-09-21T09:00:36.018755Z"}}